Location: Bois de la Silve
(44.4667°N, 6.7833°E)
Time: 20:32:12
(UTC+00:00)

Cosmos 1666 Rocket - Pass Details

Date: 14 July 2020
Orbit: 603 x 633 km, 82.5° (Epoch: 14 August)

Event Time Altitude Azimuth Distance (km) Brightness Sun altitude
Exits shadow 00:23:49 40° 271° (W) 908 4.3 -23.1°
Maximum altitude 00:24:08 41° 283° (WNW) 897 4.3 -23.1°
Drops below altitude 10° 00:28:17 10° 355° (N) 1,978 7.1 -22.9°
Sets 00:30:37 0° 2° (N) 2,883 8.4 -22.8°
